カタログに戻る

COSMOS 1914

運用中軍事PO
NORAD 18793·PAYLOAD·🇷🇺 Russia

打ち上げ Jan 15, 1988 から Plesetsk Cosmodrome

Loading…

次のパス (今後24時間)

TLE

最新Source: Space-Track

元期: Sep 14, 2026, 02:52 UTC

1 18793U 88002F   26257.11975487  .00000029  00000-0  96084-4 0  9992
2 18793  82.6100 155.8781 0017078 164.4306   4.9909 12.66463938787044

AllMySatでCOSMOS 1914をリアルタイム追跡

Download on the App Store